Saint Simons Island, GA

11:15 PM EST on December 06, 2019 (GMT -0500)
McKinnon

Weather History for KSSI - October, 2019

Change the Weather History Date:

Friday, October 18, 2019

  Actual Average Record
Temperature  
Mean Temperature 68 °F 70 °F  
Max Temperature 78 °F 77 °F 89 °F (2007)
Min Temperature 57 °F 62 °F 43 °F (1977)
Degree Days  
Heating Degree Days 0 1  
Month to date heating degree days 0 8  
Since 1 July heating degree days 0 8  
Cooling Degree Days 3 5  
Month to date cooling degree days 220 136  
Year to date cooling degree days 3207 2507  
Growing Degree Days 17 (Base 50)    
Moisture  
Dew Point 54 °F    
Average Humidity 60    
Maximum Humidity 80    
Minimum Humidity 40    
Precipitation  
Precipitation 0.00 in 0.15 in 4.89 in (1950)
Month to date precipitation 2.13 3.10  
Year to date precipitation 29.23 38.97  
Snow  
Snow 0.00 in - 0.00 in ()
Month to date snowfall 0.0  
Since 1 July snowfall 0.0  
Since 1 September snowfall 0.0  
Snow Depth 0.00 in    
Sea Level Pressure  
Sea Level Pressure 29.96 in    
Wind  
Wind Speed 6 mph (NE)    
Max Wind Speed 16 mph    
Max Gust Speed 23 mph    
Visibility 10 miles    
Events      
T = Trace of Precipitation, MM = Missing Value Source: NWS Daily Summary

Daily Weather History Graph

Daily Weather History Graph

Search for Another Location

Airport or City:

Astronomy

Oct. 18, 2019 Rise Set
Actual Time 7:30 AM EDT 6:50 PM EDT
Civil Twilight 7:05 AM EDT 7:15 PM EDT
Nautical Twilight 6:37 AM EDT 7:43 PM EDT
Astronomical Twilight 6:09 AM EDT 8:11 PM EDT
Moon 10:20 PM EDT (10/18) 11:47 AM EDT (10/18)
Length of Visible Light 12h 09m
Length of Day
11h 20m
Waning Gibbous, 79% of the Moon is Illuminated
Oct 18
Waning Gibbous
Oct 21
Last Quarter
Oct 27
New
Nov 4
First Quarter
Nov 12
Full

Hourly Weather History & Observations

Time (EDT) Temp. Dew Point Humidity Pressure Visibility Wind Dir Wind Speed Gust Speed Precip Events Conditions
12:53 AM 62.1 °F 53.1 °F 72% 29.95 in 10.0 mi WNW 3.5 mph - N/A   Clear
1:53 AM 60.1 °F 53.1 °F 78% 29.94 in 10.0 mi Calm Calm - N/A   Clear
2:53 AM 60.1 °F 54.0 °F 80% 29.94 in 10.0 mi Calm Calm - N/A   Clear
3:53 AM 59.0 °F 54.0 °F 83% 29.93 in 10.0 mi Calm Calm - N/A   Clear
4:53 AM 60.1 °F 52.0 °F 75% 29.92 in 10.0 mi NW 5.8 mph - N/A   Clear
5:53 AM 59.0 °F 46.9 °F 64% 29.93 in 10.0 mi NNW 4.6 mph - N/A   Clear
6:53 AM 57.0 °F 48.0 °F 72% 29.94 in 10.0 mi NNW 3.5 mph - N/A   Clear
7:53 AM 57.0 °F 48.9 °F 74% 29.95 in 10.0 mi NNW 3.5 mph - N/A   Clear
8:53 AM 63.0 °F 51.1 °F 65% 29.98 in 10.0 mi North 5.8 mph - N/A   Clear
9:53 AM 64.0 °F 54.0 °F 70% 30.00 in 10.0 mi Calm Calm - N/A   Clear
10:53 AM 69.1 °F 57.9 °F 68% 30.01 in 10.0 mi Calm Calm - N/A   Clear
11:53 AM 73.9 °F 57.0 °F 55% 30.01 in 10.0 mi Calm Calm - N/A   Clear
12:53 PM 75.9 °F 54.0 °F 46% 29.99 in 10.0 mi ENE 5.8 mph - N/A   Clear
2:53 PM 77.0 °F 53.1 °F 43% 29.95 in 10.0 mi East 9.2 mph - N/A   Partly Cloudy
3:53 PM 75.9 °F 53.1 °F 45% 29.96 in 10.0 mi East 8.1 mph - N/A   Clear
4:53 PM 75.9 °F 54.0 °F 46% 29.96 in 10.0 mi ENE 5.8 mph - N/A   Scattered Clouds
5:53 PM 75.0 °F 55.0 °F 50% 29.95 in 10.0 mi East 6.9 mph - N/A   Mostly Cloudy
6:53 PM 73.0 °F 55.9 °F 55% 29.94 in 10.0 mi ENE 6.9 mph - N/A   Mostly Cloudy
7:53 PM 73.9 °F 55.9 °F 53% 29.94 in 10.0 mi East 9.2 mph - N/A   Clear
8:53 PM 73.9 °F 57.0 °F 55% 29.95 in 10.0 mi East 10.4 mph - N/A   Clear
9:53 PM 75.0 °F 60.1 °F 60% 29.96 in 10.0 mi East 10.4 mph - N/A   Overcast
10:53 PM 75.0 °F 61.0 °F 62% 29.95 in 10.0 mi East 10.4 mph - N/A   Partly Cloudy
11:53 PM 75.9 °F 62.1 °F 62% 29.95 in 10.0 mi ESE 12.7 mph - N/A   Clear